Location: Lawrence Hall of Science
(37.8785°N, 122.2415°W)
Time: 11:55:57
(UTC-07:00)

Cosmos 2151 - Visible Passes

Search period start: 23 August 2014 00:00
Search period end: 02 September 2014 00:00
Orbit: 586 x 608 km, 82.5° (Epoch: 22 August)

Date Brightness Start Highest point End Pass type
(mag) Time Alt. Az. Time Alt. Az. Time Alt. Az.
25 Aug 6.0 23:30:22 10° N 23:30:27 11° N 23:30:27 11° N visible
26 Aug 6.1 23:40:42 10° N 23:40:50 11° N 23:40:50 11° N visible
27 Aug 6.3 23:51:12 10° NNW 23:51:12 10° NNW 23:51:12 10° NNW visible
29 Aug 5.8 22:35:16 10° NNE 22:35:18 10° NNE 22:35:18 10° NNE visible
30 Aug 5.7 22:45:19 10° N 22:45:42 12° N 22:45:42 12° N visible
31 Aug 5.8 22:55:35 10° N 22:56:08 13° N 22:56:08 13° N visible
01 Sep 5.9 23:06:02 10° NNW 23:06:34 13° NNW 23:06:34 13° NNW visible
